Flag for Germany Weather past 2 weeks in Neuruppin, Brandenburg, Germany

Now
51 °F

Overcast.


Feels Like: 50 °F
Forecast: 45 / 59 °F
Wind: 5 mph from Northwest

Location: Neuruppin

Current Time: Sep 22, 2014 at 11:14:59 PM

Latest Report: Sep 22, 2014 at 10:00 PM


Visibility: 6 mi

Pressure: 29.93 "Hg

Humidity: 87%

Dew point: 47 °F

Location of NeuruppinLocation

Historic Weather in Neuruppin — Graph

°F

Neuruppin temperature yesterday

Maximum temperature yesterday: 64 °F (at 3:00 PM)
Minimum temperature yesterday: 55 °F (at 7:00 AM)
Average temperature yesterday: 59 °F

Past Weeks' High & Low Weather Summary

 TemperatureHumidityPressure
High76 °F (Sep 15, 4:00 PM)99% (Sep 21, 8:00 AM)30.19 "Hg (Sep 21, 8:00 AM)
Low50 °F (Sep 22, 7:00 AM)48% (Sep 15, 5:00 PM)29.78 "Hg (Sep 22, 9:00 AM)
Average61 °F82%30.02 "Hg
* Reported Sep 7 10:00 PM — Sep 22 10:00 PM, Neuruppin, Weather by CustomWeather, © 2014

Note: Actual official high and low records may vary slightly from our data, if they occured in-between our weather recording intervals... More about our weather records

Advertising

Neuruppin weather history for previous 24 hours

 ConditionsComfort  
Time TempWeatherWind HumidityBarometerVisibility
10:00 PM
Sep 22
51 °FOvercast.5 mph87%29.93 "Hg6 mi
9:00 PM51 °FOvercast.6 mph91%29.92 "Hg6 mi
8:00 PM51 °FOvercast.5 mph91%29.90 "Hg6 mi
7:00 PM51 °FOvercast.3 mph93%29.88 "Hg6 mi
6:00 PM51 °FOvercast.5 mph90%29.86 "Hg6 mi
5:00 PM52 °FOvercast.5 mph89%29.85 "Hg6 mi
4:00 PM53 °FOvercast.5 mph84%29.84 "Hg6 mi
3:00 PM53 °FPartly sunny.5 mph77%29.83 "Hg6 mi
2:00 PM52 °FOvercast.6 mph78%29.82 "Hg6 mi
1:00 PM51 °FOvercast.6 mph75%29.81 "Hg6 mi
12:00 PM54 °FOvercast.6 mph68%29.80 "Hg6 mi
11:00 AM55 °FOvercast.6 mph67%29.78 "Hg6 mi
10:00 AM54 °FOvercast.5 mph78%29.78 "Hg6 mi
9:00 AM53 °FPassing clouds.3 mph82%29.78 "Hg6 mi
8:00 AM51 °FPassing clouds.2 mph87%29.79 "Hg6 mi
7:00 AM50 °FSunny.2 mph87%29.80 "Hg6 mi
6:00 AM51 °FPassing clouds.3 mph86%29.81 "Hg6 mi
5:00 AM54 °FOvercast.3 mph84%29.82 "Hg6 mi
4:00 AM54 °FOvercast.2 mph86%29.82 "Hg6 mi
3:00 AM54 °FOvercast.3 mph87%29.83 "Hg6 mi
2:00 AM53 °FPassing clouds.2 mph89%29.84 "Hg6 mi
1:00 AM53 °FOvercast.2 mph90%29.84 "Hg5 mi
12:00 AM52 °FClear.2 mph87%29.85 "Hg6 mi
Weather by CustomWeather, © 2014

See weather overviewHow to use our weather pages